Tracking 27422 objects as of 30-May-2023
HD Live streaming from Space Station
objects crossing your sky now

STARLINK-4465

Track STARLINK-4465 now!
10-day predictions
STARLINK-4465 is classified as:


NORAD ID: 53496
Int'l Code: 2022-099AH
Perigee: 566.8 km
Apogee: 573.6 km
Inclination: 97.7 °
Period: 95.9 minutes
Semi major axis: 6941 km
RCS: Unknown
Launch date: August 12, 2022
Source: United States (US)
Launch site: AIR FORCE WESTERN TEST RANGE (AFWTR)
Your satellite tracking list
Your tracking list is empty




NASA's NSSDC Master Catalog

Two Line Element Set (TLE):
1 53496U 22099AH  23149.90272678 -.00000071  00000-0 -87394-6 0  9996
2 53496  97.6548 271.2340 0004891 209.2419 150.8532 15.01257143 43972
Source of the keplerian elements: AFSPC